Stations météo

réclame
Mon MeteoGroup
Saint-Quentin, France (7061): Température de l'air & dewpoint: 20.09.2018 17:00:00 - 26.09.2018 17:00:00 (CEST)Saint-Quentin, France (7061): Température de l'air 5cm: 20.09.2018 17:00:00 - 26.09.2018 17:00:00 (CEST)Saint-Quentin, France (7061): Température de l'air -20cm & Température de l'air -100cm: 20.09.2018 17:00:00 - 26.09.2018 17:00:00 (CEST)Saint-Quentin, France (7061): Vitesse du vent & gusts: 20.09.2018 17:00:00 - 26.09.2018 17:00:00 (CEST)Saint-Quentin, France (7061): Direction du vent: 20.09.2018 17:00:00 - 26.09.2018 17:00:00 (CEST)Saint-Quentin, France (7061): reduced air pressure: 20.09.2018 17:00:00 - 26.09.2018 17:00:00 (CEST)Saint-Quentin, France (7061): visibility: 20.09.2018 17:00:00 - 26.09.2018 17:00:00 (CEST)Saint-Quentin, France (7061): Ensoleillement: 20.09.2018 17:00:00 - 26.09.2018 17:00:00 (CEST)Saint-Quentin, France (7061): Quantités de précipitations: 20.09.2018 17:00:00 - 26.09.2018 17:00:00 (CEST)
Date & Time tt [°C] td [°C] tt 5cm [°C] tt -20cm [°C] tt -100cm [°C] ff [km/h] ff [knt] fx [km/h] fx [knt] dd ppp [hPa] vv [km] sd [min] rr [mm]
26.09.2018 17:00:00 - - - - - - - - - - - - - -
26.09.2018 16:00:00 18,5 5,0 25,5 14,6 16,2 8 4 14 8 ESE 1032,7 15 60 0,0
26.09.2018 15:00:00 17,7 5,0 24,5 14,5 16,2 6 4 18 10 SE 1033,4 17 60 0,0
26.09.2018 14:00:00 16,6 5,5 23,9 14,4 16,2 7 4 14 8 ESE 1033,9 20 60 0,0
26.09.2018 13:00:00 15,2 5,9 20,4 14,4 16,2 6 4 14 8 SE 1034,2 20 60 0,0
26.09.2018 12:00:00 13,6 5,7 17,0 14,4 16,3 9 5 17 9 ESE 1034,6 20 60 0,0
26.09.2018 11:00:00 11,9 4,6 13,4 14,5 16,2 13 7 20 11 SE 1034,9 20 60 0,0
26.09.2018 10:00:00 10,3 5,1 8,6 14,6 16,3 11 6 16 9 ESE 1034,9 20 60 0,0
26.09.2018 09:00:00 7,2 4,2 3,2 14,7 16,3 7 4 11 6 ESE 1034,6 20 57 0,0
26.09.2018 08:00:00 5,4 3,1 0,6 14,8 16,3 11 6 16 8 E 1034,6 20 0 0,0
26.09.2018 07:00:00 4,8 2,8 0,4 14,8 16,3 9 5 16 9 E 1034,3 20 0 0,0
26.09.2018 06:00:00 6,4 3,4 3,5 15,0 16,3 10 5 15 8 ENE 1034,6 20 0 0,0
26.09.2018 05:00:00 6,1 3,3 2,4 15,1 16,3 10 5 14 8 ENE 1034,7 18 0 0,0
26.09.2018 04:00:00 8,2 3,4 4,4 15,1 16,3 11 6 13 7 ENE 1034,7 20 0 0,0
26.09.2018 03:00:00 8,1 4,3 1,4 15,2 16,3 7 4 9 5 E 1034,8 20 0 0,0
26.09.2018 02:00:00 6,5 4,3 1,0 15,3 16,3 7 4 8 4 E 1035,4 20 0 0,0
26.09.2018 01:00:00 7,0 4,6 3,6 15,4 16,3 6 3 13 7 E 1035,4 20 0 0,0
26.09.2018 00:00:00 7,8 5,6 4,3 15,4 16,3 11 6 15 8 E 1035,8 20 0 0,0
25.09.2018 23:00:00 9,1 5,6 6,3 15,4 16,3 11 6 13 7 ENE 1036,2 20 0 0,0
25.09.2018 22:00:00 9,2 5,7 5,1 15,4 16,4 9 5 16 9 ENE 1036,4 20 0 0,0
25.09.2018 21:00:00 11,7 5,3 10,1 15,5 16,4 12 7 17 9 NE 1036,1 20 0 0,0
25.09.2018 20:00:00 12,8 5,2 11,4 15,4 16,4 10 5 13 7 NE 1035,5 20 15 0,0
25.09.2018 19:00:00 14,2 6,3 14,4 15,3 16,4 10 5 19 10 ENE 1035,5 20 56 0,0
25.09.2018 18:00:00 15,7 5,0 17,2 15,2 16,4 12 7 23 12 E 1035,8 20 60 0,0
25.09.2018 17:00:00 16,0 4,4 20,7 15,1 16,4 13 7 30 16 E 1036,3 19 60 0,0
25.09.2018 16:00:00 16,0 4,4 22,6 14,9 16,4 16 9 28 15 E 1037,0 2,5 60 0,0
25.09.2018 15:00:00 16,1 6,2 23,0 14,8 16,4 14 8 31 17 ENE 1037,6 8 60 0,0
25.09.2018 14:00:00 15,3 5,5 22,3 14,8 16,4 14 7 29 16 ESE 1038,1 20 60 0,0
25.09.2018 13:00:00 14,8 5,6 19,9 14,8 16,4 17 9 28 15 E 1038,5 20 58 0,0
25.09.2018 12:00:00 13,6 6,7 17,8 14,8 16,4 10 6 22 12 ESE 1039,0 20 60 0,0
25.09.2018 11:00:00 12,8 7,0 14,9 14,9 16,4 9 5 16 9 E 1039,3 20 60 0,0
25.09.2018 10:00:00 10,2 6,2 7,8 15,0 16,4 9 5 15 8 E 1038,9 20 60 0,0
25.09.2018 09:00:00 7,9 5,4 2,6 15,1 16,4 0 0 8 5 N 1038,6 20 60 0,0
25.09.2018 08:00:00 5,0 3,8 -0,4 15,3 16,5 5 3 10 5 E 1038,4 20 0 0,0
25.09.2018 07:00:00 4,5 3,3 -0,3 15,3 16,4 3 1 10 5 E 1038,3 20 0 0,0
25.09.2018 06:00:00 4,7 2,9 1,6 15,5 16,5 9 5 13 7 ENE 1038,2 20 0 0,0
25.09.2018 05:00:00 6,1 3,4 4,0 15,6 16,5 9 5 15 8 ENE 1038,2 20 0 0,0
25.09.2018 04:00:00 6,7 4,2 0,3 15,6 16,5 12 6 17 9 NE 1038,2 20 0 0,0
25.09.2018 03:00:00 5,8 3,8 0,5 15,7 16,5 6 3 12 7 ENE 1038,4 20 0 0,0
25.09.2018 02:00:00 7,1 4,4 5,2 15,8 16,5 10 5 16 8 ENE 1038,4 20 0 0,0
25.09.2018 01:00:00 7,6 5,1 5,4 15,9 16,5 10 5 17 9 NE 1038,4 20 0 0,0
25.09.2018 00:00:00 8,0 5,1 6,7 16,0 16,5 14 7 18 10 NNE 1038,3 20 0 0,0
24.09.2018 23:00:00 8,6 5,2 7,4 16,0 16,5 14 8 18 10 NNE 1038,1 20 0 0,0
24.09.2018 22:00:00 9,0 5,2 7,3 16,0 16,5 10 5 16 9 NNE 1037,7 20 0 0,0
24.09.2018 21:00:00 9,7 5,1 7,7 16,1 16,5 9 5 14 8 N 1037,2 20 0 0,0
24.09.2018 20:00:00 11,0 5,3 9,2 16,0 16,5 7 4 17 9 N 1036,7 20 0 0,0
24.09.2018 19:00:00 13,8 5,9 12,8 15,9 16,5 8 5 28 15 N 1036,1 19 52 0,0
24.09.2018 18:00:00 15,4 5,3 15,1 15,8 16,5 10 6 27 15 N 1035,7 20 54 0,0
24.09.2018 17:00:00 15,6 6,6 15,9 15,7 16,5 16 8 28 15 N 1035,8 20 53 0,0
24.09.2018 16:00:00 15,9 4,9 15,6 15,6 16,5 12 6 32 18 NNW 1036,0 20 56 0,0
24.09.2018 15:00:00 15,7 5,0 14,6 15,5 16,5 11 6 25 14 NNW 1036,5 20 46 0,0
24.09.2018 14:00:00 14,7 5,2 14,9 15,5 16,5 12 7 23 12 N 1036,7 20 36 0,0
24.09.2018 13:00:00 14,0 5,6 14,9 15,5 16,5 11 6 28 15 N 1036,7 20 45 0,0
24.09.2018 12:00:00 14,2 7,5 17,0 15,5 16,5 15 8 26 14 NNE 1036,4 18 60 0,0
24.09.2018 11:00:00 13,6 7,1 14,9 15,6 16,5 12 7 25 14 N 1036,1 20 60 0,0
24.09.2018 10:00:00 12,2 7,7 10,4 15,7 16,5 11 6 20 11 N 1035,4 20 60 0,0
24.09.2018 09:00:00 9,7 7,3 6,3 15,8 16,5 8 4 14 8 NNW 1035,0 20 60 0,0
24.09.2018 08:00:00 7,1 5,9 5,6 15,9 16,5 7 4 14 7 N 1034,2 20 0 0,0
24.09.2018 07:00:00 7,5 6,1 6,2 16,0 16,5 8 4 16 9 N 1033,6 20 0 0,0
24.09.2018 06:00:00 8,0 6,5 6,4 16,1 16,6 8 5 16 9 NNW 1033,0 20 0 0,0
24.09.2018 05:00:00 8,1 6,4 7,0 16,2 16,5 10 5 19 10 NNW 1032,1 20 0 0,0
24.09.2018 04:00:00 8,5 6,8 6,9 16,2 16,5 14 7 21 12 N 1031,3 20 0 0,0
24.09.2018 03:00:00 8,4 6,9 7,0 16,3 16,6 9 5 17 9 NNW 1030,6 20 0 0,0
24.09.2018 02:00:00 8,1 6,6 6,5 16,4 16,6 10 5 17 9 NNW 1029,6 20 0 0,0
24.09.2018 01:00:00 8,6 6,6 6,9 16,5 16,6 10 5 16 9 NW 1028,8 20 0 0,0
24.09.2018 00:00:00 9,5 6,8 7,7 16,6 16,6 9 5 20 11 NW 1027,4 20 0 0,0
23.09.2018 23:00:00 10,4 7,6 9,4 16,6 16,6 13 7 24 13 NW 1026,4 20 0 0,0
23.09.2018 22:00:00 10,4 8,0 9,9 16,6 16,6 14 8 29 16 NW 1025,2 20 0 0,0
23.09.2018 21:00:00 10,5 7,9 9,9 16,7 16,6 16 9 35 19 NNW 1023,7 20 0 0,0
23.09.2018 20:00:00 10,7 8,6 9,8 16,7 16,6 22 12 45 25 N 1021,7 16 0 0,0
23.09.2018 19:00:00 11,4 8,6 11,1 16,7 16,6 18 10 57 31 N 1019,7 20 0 0,0
23.09.2018 18:00:00 11,7 9,3 10,9 16,7 16,6 31 17 55 30 NNW 1017,6 19 0 0,0
23.09.2018 17:00:00 13,4 10,7 13,6 16,7 16,6 20 11 37 20 NNW 1015,7 17 1 0,0
23.09.2018 16:00:00 13,3 11,2 13,3 16,6 16,6 18 10 39 21 N 1013,8 20 0 0,0
23.09.2018 15:00:00 12,9 11,5 12,2 16,6 16,6 17 9 46 25 N 1012,5 20 0 0,7
23.09.2018 14:00:00 12,6 11,3 12,2 16,5 16,6 32 17 80 43 N 1010,5 8 0 5,1
23.09.2018 13:00:00 20,7 18,3 19,5 16,4 16,6 43 23 67 36 WSW 1007,9 20 1 0,0
23.09.2018 12:00:00 19,9 18,2 18,8 16,3 16,6 40 21 61 33 WSW 1008,2 15 2 0,4
23.09.2018 11:00:00 18,5 18,2 18,4 16,3 16,6 16 8 31 17 W 1009,6 2,5 0 3,1
23.09.2018 10:00:00 18,1 17,8 17,7 16,2 16,6 16 9 25 13 W 1010,4 7 0 0,6
23.09.2018 09:00:00 17,6 17,3 17,6 16,1 16,6 18 10 30 16 W 1011,1 2,9 0 1,2
23.09.2018 08:00:00 17,7 17,4 17,6 16,1 16,7 16 8 32 17 W 1010,9 1,9 0 1,0
23.09.2018 07:00:00 18,0 17,7 17,8 16,0 16,7 21 11 45 24 W 1011,2 2,3 0 8,1
23.09.2018 06:00:00 18,4 18,1 18,1 16,0 16,7 22 12 44 24 W 1011,0 2,3 0 4,2
23.09.2018 05:00:00 18,4 17,9 17,8 16,0 16,7 31 17 45 24 WSW 1011,1 5 0 0,2
23.09.2018 04:00:00 18,0 17,7 16,0 16,0 16,7 24 13 37 20 WSW 1011,3 8 0 0,2
23.09.2018 03:00:00 16,1 15,8 14,7 16,0 16,7 16 9 27 15 SW 1011,8 7 0 0,0
23.09.2018 02:00:00 14,6 14,3 12,5 16,1 16,7 13 7 20 11 SW 1012,4 4,3 0 0,6
23.09.2018 01:00:00 12,5 12,2 11,6 16,1 16,7 7 4 24 13 SE 1013,4 2,1 0 0,8
23.09.2018 00:00:00 11,7 11,2 11,1 16,2 16,8 16 9 29 16 SSE 1014,1 7 0 0,4
22.09.2018 23:00:00 11,3 10,8 10,8 16,2 16,7 21 12 34 19 SSE 1015,0 5 0 0,9
22.09.2018 22:00:00 11,0 10,4 10,6 16,2 16,7 22 12 32 17 SE 1016,6 4,2 0 1,8
22.09.2018 21:00:00 11,3 10,5 10,9 16,2 16,7 14 8 23 12 ESE 1017,7 3,2 0 1,4
22.09.2018 20:00:00 11,5 10,1 10,9 16,3 16,7 7 4 16 8 SE 1017,9 9 0 0,6
22.09.2018 19:00:00 12,2 10,6 11,6 16,2 16,7 8 4 12 6 S 1019,0 12 0 0,4
22.09.2018 18:00:00 12,2 10,3 11,4 16,2 16,7 10 5 22 12 SSW 1019,6 13 0 1,0
22.09.2018 17:00:00 13,9 8,3 11,1 16,2 16,8 18 10 34 19 W 1020,3 19 0 0,6
22.09.2018 16:00:00 16,3 7,2 15,1 16,1 16,8 21 11 34 18 SW 1020,5 20 0 0,0
22.09.2018 15:00:00 16,9 7,0 17,4 16,1 16,8 21 12 34 18 W 1021,0 20 0 0,0
22.09.2018 14:00:00 17,3 7,3 19,1 16,0 16,7 26 14 37 20 WSW 1021,3 20 11 0,0
22.09.2018 13:00:00 16,7 8,9 18,5 16,0 16,8 20 11 36 19 SW 1021,3 20 3 0,0
22.09.2018 12:00:00 16,4 9,3 18,0 16,0 16,8 22 12 35 19 WSW 1021,8 19 52 0,0
22.09.2018 11:00:00 14,1 8,5 13,8 16,0 16,8 19 10 34 19 SW 1022,2 20 34 0,0
22.09.2018 10:00:00 12,8 8,7 12,0 16,1 16,8 18 10 24 13 SW 1022,3 20 22 0,0
22.09.2018 09:00:00 11,3 8,2 10,1 16,2 16,8 14 8 20 11 SSW 1022,4 20 0 0,0
22.09.2018 08:00:00 10,3 7,7 8,6 16,3 16,8 13 7 18 10 SW 1022,2 20 0 0,0
22.09.2018 07:00:00 10,0 7,4 9,1 16,3 16,7 11 6 20 11 SW 1022,2 20 0 0,0
22.09.2018 06:00:00 9,8 7,2 8,9 16,4 16,8 12 6 16 9 WSW 1022,2 20 0 0,0
22.09.2018 05:00:00 10,4 7,1 9,0 16,5 16,8 10 6 19 10 SW 1021,7 20 0 0,0
22.09.2018 04:00:00 11,2 7,1 10,4 16,5 16,8 17 9 24 13 WSW 1022,1 20 0 0,0
22.09.2018 03:00:00 11,4 6,7 10,3 16,6 16,8 15 8 22 12 WSW 1021,7 20 0 0,0
22.09.2018 02:00:00 11,0 6,1 8,9 16,7 16,8 16 9 23 12 WSW 1021,7 20 0 0,0
22.09.2018 01:00:00 10,3 6,1 8,3 16,8 16,8 15 8 23 12 SW 1021,1 20 0 0,0
22.09.2018 00:00:00 10,5 6,1 9,2 16,9 16,8 15 8 26 14 SW 1020,9 20 0 0,0
21.09.2018 23:00:00 11,7 6,0 10,1 17,0 16,8 19 10 31 17 WSW 1020,4 20 0 0,0
21.09.2018 22:00:00 12,3 5,7 10,3 17,0 16,8 21 11 31 17 W 1019,9 20 0 0,0
21.09.2018 21:00:00 12,2 4,9 10,1 17,1 16,8 16 8 25 14 W 1019,1 20 0 0,0
21.09.2018 20:00:00 13,4 4,3 11,8 17,1 16,7 21 11 46 25 W 1017,8 20 22 0,0
21.09.2018 19:00:00 15,4 4,4 14,9 17,2 16,8 34 19 63 34 W 1016,8 20 55 0,0
21.09.2018 18:00:00 16,6 4,3 16,7 17,2 16,8 35 19 57 31 W 1016,0 20 55 0,0
21.09.2018 17:00:00 15,8 5,7 16,2 17,2 16,8 34 18 59 32 W 1015,7 20 19 0,0
21.09.2018 16:00:00 16,4 3,8 16,1 17,1 16,8 37 20 61 33 W 1015,2 20 37 0,0
21.09.2018 15:00:00 16,6 4,6 17,6 17,1 16,7 39 21 59 32 W 1014,4 20 36 0,0
21.09.2018 14:00:00 16,9 7,3 17,8 17,1 16,8 39 21 59 32 W 1013,4 20 50 0,0
21.09.2018 13:00:00 16,6 8,3 17,7 17,1 16,8 37 20 58 31 WNW 1012,5 20 49 0,0
21.09.2018 12:00:00 16,1 10,2 15,8 17,1 16,8 36 19 64 34 WNW 1011,4 20 33 0,0
21.09.2018 11:00:00 15,1 11,5 14,5 17,1 16,8 44 24 64 35 WNW 1010,4 20 13 0,0
21.09.2018 10:00:00 14,8 11,4 12,7 17,2 16,8 30 16 46 25 W 1009,0 20 4 0,0
21.09.2018 09:00:00 13,8 11,1 12,4 17,2 16,7 28 15 62 33 W 1008,3 20 0 2,0
21.09.2018 08:00:00 16,3 15,2 15,4 17,2 16,8 28 15 42 23 SW 1006,2 6 0 2,2
21.09.2018 07:00:00 17,0 14,3 15,3 17,3 16,8 28 15 44 24 SW 1005,9 13 0 0,6
21.09.2018 06:00:00 18,0 12,9 17,3 17,3 16,8 27 15 45 24 SSW 1006,3 20 0 0,0
21.09.2018 05:00:00 18,2 13,1 16,9 17,4 16,8 26 14 38 21 SSW 1006,2 20 0 0,0
21.09.2018 04:00:00 17,8 13,1 15,9 17,4 16,8 21 11 34 19 SSW 1006,8 20 0 0,0
21.09.2018 03:00:00 17,5 13,0 16,2 17,4 16,8 20 11 28 15 SW 1008,3 20 0 0,0
21.09.2018 02:00:00 17,8 12,9 13,4 17,5 16,8 17 9 24 13 SW 1009,0 20 0 0,0
21.09.2018 01:00:00 16,2 11,6 13,4 17,5 16,8 9 5 17 9 S 1009,4 20 0 0,0
21.09.2018 00:00:00 17,8 12,5 16,0 17,5 16,8 15 8 22 12 S 1010,0 20 0 0,0
20.09.2018 23:00:00 18,0 12,7 14,9 17,6 16,8 13 7 18 10 S 1010,7 20 0 0,0
20.09.2018 22:00:00 18,0 12,7 15,4 17,6 16,8 10 6 16 9 S 1011,5 20 0 0,0
20.09.2018 21:00:00 18,9 12,6 16,1 17,5 16,8 11 6 23 12 S 1012,2 20 0 0,0
20.09.2018 20:00:00 20,5 13,0 18,9 17,5 16,8 17 9 28 15 SSW 1012,5 20 17 0,0
20.09.2018 19:00:00 21,6 13,5 20,8 17,4 16,7 14 8 33 18 SSW 1013,1 19 28 0,0
20.09.2018 18:00:00 22,8 13,6 23,3 17,3 16,8 22 12 40 22 SSW 1013,5 20 44 0,0
20.09.2018 17:00:00 23,3 13,2 24,9 17,1 16,8 27 15 39 21 SSW 1014,3 20 52 0,0

tt = Température de l'air
td = dewpoint
tt 5cm = Température de l'air 5cm
tt -20cm = Température de l'air -20cm
tt -100cm = Température de l'air -100cm
ff = Vitesse du vent
fx = gusts
dd = Direction du vent
ppp = reduced air pressure
vv = visibility
sd = Ensoleillement
rr = Quantités de précipitations

stations d'obs. à proximité